Wind_Speed
35 36 36 38 38 36 37 35 32 33 35 34 30 36 34 35 37 37 37 40 42 44 46 47 49 52 52 53 55 56 58 58 59
40 37 36 37 38 37 35 37 38 38 39 41 44 46 33 36 37 37 38 40 43 46 47 50 52 54 55 56 56 57 59 60 62
39 39 38 37 37 37 38 41 43 46 46 46 43 33 36 37 38 37 39 44 46 48 51 52 52 53 56 57 59 60 62 63 65
39 38 39 38 38 36 38 40 40 41 42 39 33 35 37 40 40 40 44 47 49 51 53 51 52 55 57 60 61 63 64 65 69
39 38 38 38 37 37 39 39 38 39 39 36 36 38 41 41 43 45 48 50 51 52 52 53 54 57 60 63 64 65 68 69 73
39 38 38 38 37 38 40 39 39 38 38 36 39 41 43 45 46 48 50 52 53 53 53 55 56 59 62 65 67 69 70 73 75
38 38 40 39 40 40 40 40 40 41 38 40 43 44 47 48 50 52 53 54 54 55 57 54 59 62 65 68 71 72 74 75 77
37 37 41 41 41 41 41 41 41 43 41 44 47 48 48 50 52 53 53 55 56 58 56 58 62 65 68 72 74 75 76 77 80
38 38 40 40 42 43 44 43 42 43 45 48 49 50 53 54 54 53 54 57 58 59 62 63 66 68 72 76 77 79 79 81 82
40 40 40 40 41 43 43 42 43 45 48 51 53 54 54 54 54 55 56 59 61 64 67 67 70 73 76 79 80 81 83 84 86
44 44 44 45 44 44 45 46 46 47 48 51 54 53 54 55 56 58 60 63 66 69 69 69 72 76 82 81 83 87 86 87 89
50 49 49 49 48 48 47 49 50 50 50 52 54 55 56 57 59 60 63 67 71 72 69 70 75 81 82 84 88 89 92 92 93
53 54 52 53 53 52 51 52 53 53 54 56 57 59 60 61 63 64 66 69 70 68 72 76 79 83 84 88 91 93 93 96 97
55 56 56 57 57 56 56 56 56 57 58 59 60 61 63 62 67 67 66 64 64 69 76 82 83 84 87 89 92 95 96 97 102
60 58 59 59 59 59 58 59 60 60 61 62 63 64 65 65 64 64 66 65 68 74 79 80 82 85 89 92 94 96 98 101 104
65 61 55 54 54 56 59 59 61 63 64 65 65 65 62 63 66 67 69 72 78 81 82 82 84 86 88 93 96 98 102 105 107
68 66 61 59 59 58 58 58 59 60 63 62 58 61 69 71 67 70 74 81 85 85 84 85 87 90 92 95 98 102 106 107 110
68 68 68 67 67 65 64 64 65 65 68 68 68 70 71 71 73 77 83 88 88 87 88 89 90 93 97 99 102 106 108 110 115
68 70 70 70 70 68 67 66 68 69 75 75 77 75 73 75 80 85 89 90 91 90 92 94 94 95 101 106 107 108 112 116 114
67 66 67 70 73 74 76 77 78 77 79 80 81 82 83 85 87 90 93 93 92 95 98 100 100 102 104 108 110 114 118 116 116
Wind_Direction
276 282 278 279 279 282 279 283 273 276 285 282 281 294 295 292 292 300 305 309 312 314 316 319 321 321 324 325 326 327 329 331 333
278 281 277 279 278 281 275 276 275 278 280 284 287 293 291 291 295 303 308 310 313 314 315 319 320 321 322 326 326 329 330 331 333
277 278 278 278 277 278 274 276 279 280 282 284 287 288 286 288 293 303 308 310 312 314 316 318 320 322 324 326 327 328 330 332 334
274 275 274 276 278 277 277 281 281 282 283 284 282 281 286 290 298 304 306 309 313 315 315 315 318 320 323 325 327 329 330 332 334
271 271 270 276 275 276 279 280 281 282 282 282 275 280 285 290 298 302 306 310 311 312 313 313 316 318 321 324 326 327 330 331 334
271 268 271 276 273 277 279 279 281 282 280 276 276 281 286 290 299 303 305 307 309 310 311 310 314 318 319 321 324 327 330 331 333
271 269 271 273 274 277 277 279 281 281 277 276 277 283 289 294 300 302 304 306 307 310 309 312 314 318 318 320 325 327 329 330 331
271 272 271 271 273 274 277 278 280 279 278 277 281 285 291 294 298 301 304 305 308 310 309 311 314 316 317 321 323 326 327 328 330
273 273 274 276 274 275 276 277 280 278 278 279 281 285 290 294 297 300 303 305 308 308 310 312 314 315 318 321 324 325 325 328 329
271 275 275 277 277 275 277 279 280 279 278 280 282 286 291 294 296 299 301 303 306 307 310 312 314 315 318 321 322 322 325 327 329
270 272 274 276 277 278 279 279 280 281 282 282 284 288 291 294 296 299 301 304 306 306 310 312 313 317 320 321 321 322 325 327 328
269 270 271 273 275 277 278 279 280 282 284 286 287 289 292 294 297 299 302 304 305 308 309 311 314 317 319 320 320 321 325 326 327
267 268 270 272 273 275 276 278 280 282 284 285 287 290 292 294 297 300 301 305 306 306 309 311 315 317 318 318 320 321 324 324 325
267 269 270 271 273 276 277 279 280 282 283 285 287 289 292 294 297 302 303 300 304 306 310 313 315 315 317 317 318 320 321 322 323
265 267 269 271 275 275 276 277 278 280 281 283 285 287 293 297 301 296 298 302 304 308 311 312 312 313 314 316 317 317 319 320 322
263 264 264 268 273 275 276 280 279 279 280 282 285 292 294 291 289 296 298 302 305 309 310 309 311 311 312 313 314 315 317 319 320
264 263 263 267 267 268 271 273 275 278 280 282 284 287 287 289 292 294 297 302 306 308 307 309 309 310 311 311 312 314 315 317 319
262 261 262 265 268 270 272 274 276 278 281 281 279 282 287 290 293 295 299 303 305 306 307 307 306 308 308 310 310 312 313 316 318
261 262 263 268 267 271 275 277 279 280 281 283 285 285 285 287 292 296 299 301 303 303 303 303 304 305 307 308 308 312 313 315 319
266 266 269 268 271 275 277 277 278 280 280 281 283 286 287 290 293 296 297 299 298 300 302 301 303 304 304 307 309 311 312 316 317
Height
10925 10925 10925 10924 10923 10922 10921 10920 10918 10916 10915 10913 10911 10908 10906 10904 10902 10899 10896 10893 10889 10885 10881 10877 10872 10868 10863 10859 10854 10849 10843 10838 10831
10919 10919 10919 10918 10918 10917 10916 10915 10914 10912 10910 10908 10906 10904 10902 10900 10897 10894 10891 10888 10884 10880 10876 10871 10867 10863 10858 10853 10847 10843 10837 10831 10824
10912 10912 10913 10912 10912 10911 10910 10909 10908 10907 10905 10903 10901 10899 10897 10895 10892 10889 10885 10882 10878 10874 10870 10866 10861 10856 10851 10847 10841 10835 10829 10823 10816
10906 10907 10907 10907 10906 10905 10904 10903 10902 10900 10899 10897 10896 10894 10892 10890 10886 10883 10880 10876 10872 10868 10864 10860 10855 10850 10845 10840 10834 10827 10822 10815 10808
10900 10900 10900 10900 10900 10899 10898 10897 10895 10894 10893 10892 10890 10889 10886 10884 10880 10878 10874 10871 10867 10862 10858 10853 10849 10843 10838 10832 10827 10821 10814 10807 10799
10894 10894 10894 10894 10894 10893 10892 10890 10889 10888 10887 10886 10885 10882 10880 10878 10876 10872 10868 10864 10860 10855 10851 10846 10841 10835 10829 10824 10818 10812 10805 10798 10790
10887 10888 10888 10888 10888 10887 10886 10884 10883 10882 10881 10880 10878 10876 10874 10870 10868 10864 10861 10857 10853 10848 10842 10838 10832 10827 10821 10815 10809 10802 10796 10789 10782
10881 10881 10882 10882 10882 10880 10879 10878 10877 10876 10875 10873 10871 10870 10867 10863 10861 10858 10854 10850 10845 10840 10835 10830 10824 10818 10812 10806 10800 10793 10787 10780 10772
10874 10874 10874 10875 10875 10874 10873 10872 10871 10870 10868 10867 10865 10863 10860 10856 10853 10850 10846 10841 10836 10830 10826 10821 10816 10810 10803 10797 10790 10784 10777 10770 10762
10867 10867 10867 10867 10867 10866 10866 10865 10864 10863 10861 10859 10857 10855 10852 10849 10846 10842 10838 10833 10827 10821 10817 10812 10805 10798 10793 10787 10780 10773 10767 10759 10751
10859 10859 10859 10859 10858 10858 10857 10857 10855 10854 10853 10851 10848 10847 10844 10840 10838 10833 10828 10823 10818 10812 10807 10803 10796 10789 10780 10774 10767 10760 10756 10750 10740
10851 10851 10850 10850 10850 10849 10849 10847 10846 10845 10844 10842 10839 10837 10834 10831 10828 10825 10819 10814 10807 10801 10797 10793 10786 10778 10770 10763 10755 10747 10740 10734 10728
10840 10840 10841 10841 10841 10841 10840 10839 10838 10837 10835 10833 10829 10827 10824 10822 10818 10814 10811 10806 10795 10789 10784 10780 10776 10767 10759 10751 10741 10734 10728 10719 10715
10830 10830 10831 10831 10831 10832 10832 10830 10829 10828 10826 10823 10820 10816 10813 10811 10806 10800 10797 10795 10788 10781 10774 10765 10760 10753 10746 10738 10729 10722 10715 10708 10701
10819 10821 10822 10820 10821 10822 10821 10820 10819 10817 10815 10812 10809 10805 10802 10799 10794 10787 10784 10783 10778 10773 10766 10758 10750 10742 10736 10727 10720 10712 10703 10695 10688
10810 10810 10810 10810 10810 10810 10810 10810 10808 10805 10804 10800 10798 10794 10791 10787 10783 10777 10771 10768 10764 10761 10755 10747 10741 10734 10726 10718 10708 10700 10694 10685 10676
10796 10797 10800 10799 10798 10797 10798 10797 10795 10792 10789 10790 10788 10783 10775 10774 10772 10767 10762 10757 10752 10747 10740 10735 10729 10723 10715 10707 10698 10690 10681 10673 10665
10782 10784 10786 10788 10787 10786 10785 10785 10784 10782 10776 10776 10775 10774 10769 10763 10757 10755 10749 10743 10738 10734 10727 10721 10715 10708 10700 10692 10684 10675 10668 10660 10651
10769 10771 10773 10774 10774 10774 10773 10772 10772 10770 10764 10761 10760 10760 10758 10754 10748 10740 10737 10733 10727 10720 10714 10707 10702 10695 10684 10675 10669 10662 10652 10645 10636
10758 10759 10761 10760 10760 10760 10759 10759 10757 10755 10750 10748 10746 10745 10743 10739 10737 10731 10721 10720 10715 10706 10698 10690 10686 10680 10673 10662 10651 10644 10635 10629 10619